EN

Hourly Weather Szkocja

Today, 22 October, Thursday

Time Temperature Precipitation Wind Pressure Humidity
00:00 +8°C° 0 mm 5 mps 744 mmHg 84%
01:00 +9°C° 0 mm 5 mps 744 mmHg 82%
02:00 +9°C° 0 mm 5 mps 743 mmHg 81%
03:00 +8°C° 0 mm 5 mps 743 mmHg 83%
04:00 +8°C° 0 mm 5 mps 743 mmHg 84%
05:00 +8°C° 0 mm 5 mps 742 mmHg 86%
06:00 +8°C° 0 mm 5 mps 742 mmHg 86%
07:00 +8°C° 0 mm 5 mps 742 mmHg 85%
08:00 +8°C° 0 mm 5 mps 742 mmHg 84%
09:00 +9°C° 0 mm 6 mps 742 mmHg 80%
10:00 +11°C° 0 mm 7 mps 743 mmHg 75%
11:00 +12°C° 0 mm 7 mps 743 mmHg 71%
12:00 +14°C° 0 mm 7 mps 743 mmHg 71%
13:00 +15°C° 0 mm 7 mps 743 mmHg 71%
14:00 +15°C° 0 mm 8 mps 744 mmHg 70%
15:00 +15°C° 0 mm 7 mps 744 mmHg 73%
16:00 +14°C° 0 mm 6 mps 744 mmHg 76%
17:00 +14°C° 0 mm 5 mps 744 mmHg 79%
18:00 +13°C° 0 mm 5 mps 744 mmHg 82%
19:00 +12°C° 0 mm 4 mps 744 mmHg 85%
20:00 +12°C° 0 mm 4 mps 744 mmHg 89%
21:00 +12°C° 0 mm 4 mps 744 mmHg 90%
22:00 +11°C° 0 mm 4 mps 744 mmHg 91%
23:00 +11°C° 0 mm 4 mps 744 mmHg 92%

Tomorrow, 23 October, Friday

Time Temperature Precipitation Wind Pressure Humidity
00:00 +11°C° 0 mm 4 mps 744 mmHg 93%
01:00 +10°C° 0 mm 4 mps 744 mmHg 93%
02:00 +10°C° 0 mm 3 mps 745 mmHg 94%
03:00 +10°C° 0 mm 4 mps 744 mmHg 94%
04:00 +10°C° 0 mm 4 mps 743 mmHg 94%
05:00 +10°C° 0 mm 4 mps 743 mmHg 94%
06:00 +10°C° 0 mm 4 mps 743 mmHg 93%
07:00 +10°C° 0 mm 5 mps 742 mmHg 93%
08:00 +10°C° 0 mm 5 mps 742 mmHg 92%
09:00 +10°C° 1.6 mm 5 mps 742 mmHg 93%
10:00 +10°C° 1.6 mm 5 mps 742 mmHg 94%
11:00 +10°C° 1.6 mm 5 mps 742 mmHg 94%
12:00 +12°C° 0.2 mm 5 mps 742 mmHg 90%
13:00 +13°C° 0.2 mm 5 mps 742 mmHg 85%
14:00 +14°C° 0.2 mm 5 mps 743 mmHg 80%
15:00 +13°C° 0 mm 5 mps 743 mmHg 81%
16:00 +12°C° 0 mm 4 mps 743 mmHg 82%
17:00 +11°C° 0 mm 3 mps 743 mmHg 82%
18:00 +12°C° 0 mm 2 mps 743 mmHg 85%
19:00 +10°C° 0 mm 2 mps 743 mmHg 87%
20:00 +10°C° 0 mm 1 mps 744 mmHg 90%
21:00 +10°C° 0 mm 1 mps 744 mmHg 90%
22:00 +9°C° 0 mm 1 mps 744 mmHg 91%
23:00 +9°C° 0 mm 1 mps 744 mmHg 91%

Day after tomorrow, 24 October, Saturday

Time Temperature Precipitation Wind Pressure Humidity
00:00 +9°C° 0 mm 1 mps 744 mmHg 91%
01:00 +9°C° 0 mm 1 mps 744 mmHg 91%
02:00 +10°C° 0 mm 1 mps 743 mmHg 91%
03:00 +10°C° 0 mm 1 mps 743 mmHg 92%
04:00 +10°C° 0 mm 1 mps 743 mmHg 93%
05:00 +10°C° 0 mm 1 mps 742 mmHg 94%
06:00 +10°C° 0.7 mm 1 mps 742 mmHg 95%
07:00 +10°C° 0.7 mm 1 mps 742 mmHg 95%
08:00 +10°C° 0.7 mm 1 mps 742 mmHg 96%
09:00 +9°C° 2.9 mm 2 mps 742 mmHg 96%
10:00 +9°C° 2.9 mm 2 mps 742 mmHg 95%
11:00 +9°C° 2.9 mm 2 mps 741 mmHg 95%
12:00 +10°C° 0.5 mm 2 mps 742 mmHg 91%
13:00 +12°C° 0.5 mm 2 mps 742 mmHg 86%
14:00 +13°C° 0.5 mm 2 mps 742 mmHg 82%
15:00 +12°C° 0 mm 2 mps 742 mmHg 85%
16:00 +12°C° 0 mm 2 mps 743 mmHg 88%
17:00 +10°C° 0 mm 2 mps 743 mmHg 91%
18:00 +10°C° 0.1 mm 2 mps 743 mmHg 92%
19:00 +10°C° 0.1 mm 3 mps 744 mmHg 92%
20:00 +10°C° 0.1 mm 3 mps 744 mmHg 93%
21:00 +10°C° 0 mm 3 mps 745 mmHg 93%
22:00 +10°C° 0 mm 3 mps 745 mmHg 93%
23:00 +9°C° 0 mm 3 mps 745 mmHg 93%

, 25 October, Sunday

Time Temperature Precipitation Wind Pressure Humidity
00:00 +9°C° 0 mm 3 mps 745 mmHg 94%
01:00 +8°C° 0 mm 3 mps 746 mmHg 94%
02:00 +8°C° 0 mm 3 mps 746 mmHg 94%
03:00 +7°C° 0 mm 3 mps 746 mmHg 94%
04:00 +7°C° 0 mm 3 mps 746 mmHg 94%
05:00 +5°C° 0 mm 3 mps 746 mmHg 94%
06:00 +6°C° 0 mm 2 mps 747 mmHg 94%
07:00 +6°C° 0 mm 2 mps 747 mmHg 94%
08:00 +6°C° 0 mm 2 mps 747 mmHg 94%
09:00 +7°C° 0 mm 2 mps 747 mmHg 88%
10:00 +9°C° 0 mm 2 mps 748 mmHg 83%
11:00 +10°C° 0 mm 2 mps 748 mmHg 77%
12:00 +12°C° 0 mm 2 mps 748 mmHg 75%
13:00 +13°C° 0 mm 2 mps 748 mmHg 74%
14:00 +13°C° 0 mm 2 mps 748 mmHg 72%
15:00 +13°C° 0 mm 2 mps 748 mmHg 77%
16:00 +12°C° 0 mm 2 mps 748 mmHg 83%
17:00 +11°C° 0 mm 1 mps 748 mmHg 88%
18:00 +10°C° 0 mm 2 mps 748 mmHg 90%
19:00 +9°C° 0 mm 2 mps 748 mmHg 91%
20:00 +9°C° 0 mm 2 mps 748 mmHg 93%
21:00 +9°C° 0 mm 2 mps 748 mmHg 93%
22:00 +8°C° 0 mm 2 mps 748 mmHg 94%
23:00 +8°C° 0 mm 3 mps 748 mmHg 94%

25 October, Sunday

Time Temperature Precipitation Wind Pressure Humidity
00:00 +9°C° 0 mm 3 mps 745 mmHg 94%
01:00 +8°C° 0 mm 3 mps 746 mmHg 94%
02:00 +8°C° 0 mm 3 mps 746 mmHg 94%
03:00 +7°C° 0 mm 3 mps 746 mmHg 94%
04:00 +7°C° 0 mm 3 mps 746 mmHg 94%
05:00 +5°C° 0 mm 3 mps 746 mmHg 94%
06:00 +6°C° 0 mm 2 mps 747 mmHg 94%
07:00 +6°C° 0 mm 2 mps 747 mmHg 94%
08:00 +6°C° 0 mm 2 mps 747 mmHg 94%
09:00 +7°C° 0 mm 2 mps 747 mmHg 88%
10:00 +9°C° 0 mm 2 mps 748 mmHg 83%
11:00 +10°C° 0 mm 2 mps 748 mmHg 77%
12:00 +12°C° 0 mm 2 mps 748 mmHg 75%
13:00 +13°C° 0 mm 2 mps 748 mmHg 74%
14:00 +13°C° 0 mm 2 mps 748 mmHg 72%
15:00 +13°C° 0 mm 2 mps 748 mmHg 77%
16:00 +12°C° 0 mm 2 mps 748 mmHg 83%
17:00 +11°C° 0 mm 1 mps 748 mmHg 88%
18:00 +10°C° 0 mm 2 mps 748 mmHg 90%
19:00 +9°C° 0 mm 2 mps 748 mmHg 91%
20:00 +9°C° 0 mm 2 mps 748 mmHg 93%
21:00 +9°C° 0 mm 2 mps 748 mmHg 93%
22:00 +8°C° 0 mm 2 mps 748 mmHg 94%
23:00 +8°C° 0 mm 3 mps 748 mmHg 94%

26 October, Monday

Time Temperature Precipitation Wind Pressure Humidity
00:00 +8°C° 0 mm 3 mps 748 mmHg 94%
01:00 +8°C° 0 mm 3 mps 748 mmHg 94%
02:00 +8°C° 0 mm 3 mps 748 mmHg 94%
03:00 +7°C° 0 mm 3 mps 748 mmHg 93%
04:00 +7°C° 0 mm 3 mps 748 mmHg 93%
05:00 +7°C° 0 mm 3 mps 748 mmHg 93%
06:00 +7°C° 0 mm 3 mps 748 mmHg 93%
07:00 +7°C° 0 mm 3 mps 748 mmHg 92%
08:00 +6°C° 0 mm 4 mps 748 mmHg 92%
09:00 +7°C° 0 mm 4 mps 748 mmHg 87%
10:00 +9°C° 0 mm 5 mps 747 mmHg 82%
11:00 +10°C° 0 mm 5 mps 747 mmHg 77%
12:00 +12°C° 0 mm 5 mps 747 mmHg 75%
13:00 +13°C° 0 mm 5 mps 747 mmHg 73%
14:00 +13°C° 0 mm 5 mps 746 mmHg 72%
15:00 +12°C° 0 mm 5 mps 746 mmHg 75%
16:00 +12°C° 0 mm 5 mps 746 mmHg 79%
17:00 +11°C° 0 mm 4 mps 745 mmHg 83%
18:00 +10°C° 0 mm 5 mps 745 mmHg 84%
19:00 +9°C° 0 mm 5 mps 745 mmHg 86%
20:00 +9°C° 0 mm 5 mps 745 mmHg 87%
21:00 +9°C° 0 mm 5 mps 745 mmHg 87%
22:00 +9°C° 0 mm 5 mps 745 mmHg 88%
23:00 +9°C° 0 mm 5 mps 745 mmHg 88%

27 October, Tuesday

Time Temperature Precipitation Wind Pressure Humidity
00:00 +8°C° 0 mm 5 mps 745 mmHg 89%
01:00 +8°C° 0 mm 5 mps 745 mmHg 89%
02:00 +8°C° 0 mm 4 mps 744 mmHg 90%
03:00 +8°C° 0 mm 4 mps 744 mmHg 89%
04:00 +8°C° 0 mm 4 mps 744 mmHg 89%
05:00 +8°C° 0 mm 4 mps 744 mmHg 88%
06:00 +8°C° 0 mm 4 mps 744 mmHg 89%
07:00 +7°C° 0 mm 4 mps 744 mmHg 89%
08:00 +7°C° 0 mm 4 mps 744 mmHg 90%
09:00 +8°C° 0 mm 4 mps 745 mmHg 87%
10:00 +11°C° 0 mm 4 mps 745 mmHg 83%
11:00 +12°C° 0 mm 4 mps 745 mmHg 80%
12:00 +13°C° 0 mm 4 mps 745 mmHg 78%
13:00 +13°C° 0 mm 4 mps 745 mmHg 76%
14:00 +14°C° 0 mm 4 mps 745 mmHg 74%
15:00 +13°C° 0 mm 3 mps 745 mmHg 78%
16:00 +13°C° 0 mm 3 mps 745 mmHg 82%
17:00 +13°C° 0 mm 2 mps 745 mmHg 86%
18:00 +13°C° 0 mm 2 mps 746 mmHg 88%
19:00 +12°C° 0 mm 2 mps 746 mmHg 89%
20:00 +12°C° 0 mm 2 mps 746 mmHg 91%
21:00 +10°C° 0 mm 2 mps 746 mmHg 92%
22:00 +10°C° 0 mm 2 mps 747 mmHg 92%
23:00 +10°C° 0 mm 2 mps 747 mmHg 93%
Show more

We Need Your Consent

Meteoprog and our Service Providers may store and access personal data such as cookies, device identifiers or other similar technologies on your device and process such data to personalise content and ads, as well as provide social media features and to analyse the traffic.

  • Store and/or access information on your device

    Cookies, device identifiers or other information can be stored or accessed on your device for the purposes indicated above.

  • Personalised ads and content, ad and content measurement, audience insights, and products development

    Ads and content can be personalised based on a profile. More data can be added to better personalise ads and content. Ad and content performance can be measured. Insights about the audience who saw the ads and content can be derived. Such data can be used to develop or improve user’s experience, systems and software.

By clicking ‘I Agree’ you will allow the use of indicated cookies, device identifiers, web beacons or other similar technologies. Your settings can be changed in the browser on your device.

For certain purposes, legitimate interests may be relied on, rather than consent. You can read more about this in our Privacy and Cookie Policy.